Zurück zum Katalog

DASH 1

AktivWissenschaftPO
NORAD 589·PAYLOAD·🇺🇸 United States

Gestartet May 9, 1963 von Vandenberg Space Force Base

Loading…

Nächste Überflüge (nächste 24 Stunden)

TLE

AktuellSource: Space-Track

Epoche: Sep 14, 2026, 05:20 UTC

1 00589U 63014D   26257.22290934  .00000001  00000-0 -10892-2 0  9993
2 00589  87.3617 182.1814 0046790 194.3352 165.6177  8.65626584  1266

Verfolge DASH 1 in Echtzeit mit AllMySat

Download on the App Store